| time (UTC) | temp C | wind direction | speed KPH | gust KPH | rain 1hr cm | rain 24hr cm | rain mn cm | humidity % | barometer mb |
| 20260503001534 | 13 | 266 | 0.0 | 8.0 | 0.00 | 0.00 | 0.00 | 40 | 1018.8 |
| 20260503000029 | 13 | 262 | 3.2 | 12.9 | 0.00 | 0.00 | 0.00 | 38 | 1018.9 |
| 20260502234534 | 14 | 360 | 3.2 | 19.3 | 0.00 | 0.00 | 0.00 | 37 | 1018.9 |
| 20260502233020 | 14 | 360 | 9.7 | 19.3 | 0.00 | 0.00 | 0.00 | 37 | 1019.1 |
| 20260502231520 | 15 | 360 | 9.7 | 20.9 | 0.00 | 0.00 | 0.00 | 36 | 1019.2 |
| 20260502230013 | 14 | 266 | 8.0 | 20.9 | 0.00 | 0.00 | 0.00 | 36 | 1019.2 |
| 20260502224508 | 14 | 360 | 12.9 | 25.7 | 0.00 | 0.00 | 0.00 | 36 | 1019.3 |
| 20260502223003 | 14 | 360 | 4.8 | 25.7 | 0.00 | 0.00 | 0.00 | 36 | 1019.3 |
| 20260502221559 | 14 | 360 | 14.5 | 27.4 | 0.00 | 0.00 | 0.00 | 36 | 1019.3 |
| 20260502220055 | 14 | 360 | 16.1 | 25.7 | 0.00 | 0.00 | 0.00 | 36 | 1019.4 |
| 20260502214551 | 14 | 360 | 6.4 | 25.7 | 0.00 | 0.00 | 0.00 | 36 | 1019.4 |
| 20260502213046 | 13 | 316 | 9.7 | 22.5 | 0.00 | 0.00 | 0.00 | 38 | 1019.5 |
| 20260502211542 | 13 | 360 | 0.0 | 14.5 | 0.00 | 0.00 | 0.00 | 38 | 1019.6 |
| 20260502210039 | 13 | 298 | 1.6 | 22.5 | 0.00 | 0.00 | 0.00 | 37 | 1019.8 |
| 20260502204534 | 13 | 360 | 12.9 | 20.9 | 0.00 | 0.00 | 0.00 | 37 | 1020.0 |
| 20260502203028 | 14 | 360 | 4.8 | 20.9 | 0.00 | 0.00 | 0.00 | 37 | 1020.2 |
| 20260502201524 | 13 | 360 | 0.0 | 11.3 | 0.00 | 0.00 | 0.00 | 39 | 1020.3 |
| 20260502200020 | 13 | 302 | 11.3 | 19.3 | 0.00 | 0.00 | 0.00 | 38 | 1020.5 |
| 20260502194515 | 13 | 265 | 1.6 | 12.9 | 0.00 | 0.00 | 0.00 | 38 | 1020.6 |
| 20260502193011 | 13 | 355 | 0.0 | 9.7 | 0.00 | 0.00 | 0.00 | 40 | 1021.0 |
| 20260502191515 | 12 | 360 | 0.0 | 20.9 | 0.00 | 0.00 | 0.00 | 43 | 1021.3 |
| 20260502190003 | 12 | 310 | 12.9 | 27.4 | 0.00 | 0.00 | 0.00 | 44 | 1021.3 |
| 20260502184605 | 12 | 360 | 3.2 | 16.1 | 0.00 | 0.00 | 0.00 | 41 | 1021.4 |
| 20260502183054 | 12 | 15 | 0.0 | 19.3 | 0.00 | 0.00 | 0.00 | 39 | 1021.5 |
| 20260502181550 | 13 | 329 | 0.0 | 8.0 | 0.00 | 0.00 | 0.00 | 38 | 1021.7 |
| 20260502163020 | 12 | 304 | 0.0 | 16.1 | 0.00 | 0.00 | 0.00 | 40 | 1022.6 |
| 20260502161514 | 11 | 309 | 3.2 | 17.7 | 0.00 | 0.00 | 0.00 | 42 | 1022.8 |
| 20260502151603 | 10 | 269 | 8.0 | 16.1 | 0.00 | 0.00 | 0.00 | 42 | 1023.1 |
| 20260502123008 | 4 | 113 | 0.0 | 0.0 | 0.00 | 0.00 | 0.00 | 100 | 1023.0 |
| 20260502121515 | 3 | 113 | 0.0 | 0.0 | 0.00 | 0.00 | 0.00 | 100 | 1022.8 |
| 20260502120105 | 2 | 113 | 0.0 | 0.0 | 0.00 | 0.00 | 0.00 | 100 | 1022.7 |
| 20260502114558 | 2 | 113 | 0.0 | 0.0 | 0.00 | 0.00 | 0.00 | 100 | 1022.5 |
| 20260502113052 | 1 | 113 | 0.0 | 0.0 | 0.00 | 0.00 | 0.00 | 100 | 1022.4 |
| 20260502111600 | 0 | 113 | 0.0 | 0.0 | 0.00 | 0.00 | 0.00 | 100 | 1022.2 |
| 20260502110043 | 0 | 113 | 0.0 | 0.0 | 0.00 | 0.00 | 0.00 | 100 | 1022.1 |
| 20260502104539 | 0 | 113 | 0.0 | 0.0 | 0.00 | 0.00 | 0.00 | 100 | 1022.1 |
| 20260502103038 | 0 | 113 | 0.0 | 0.0 | 0.00 | 0.00 | 0.00 | 100 | 1022.0 |
| 20260502101530 | 0 | 113 | 0.0 | 0.0 | 0.00 | 0.00 | 0.00 | 100 | 1022.0 |
| 20260502091513 | 1 | 113 | 0.0 | 0.0 | 0.00 | 0.00 | 0.00 | 100 | 1021.9 |
| 20260502070035 | 2 | 113 | 0.0 | 0.0 | 0.00 | 0.00 | 0.00 | 100 | 1022.0 |
| 20260502064531 | 2 | 113 | 0.0 | 0.0 | 0.00 | 0.00 | 0.00 | 100 | 1022.0 |
| 20260502063029 | 2 | 113 | 0.0 | 0.0 | 0.00 | 0.00 | 0.00 | 100 | 1022.2 |
| 20260502061521 | 2 | 113 | 0.0 | 0.0 | 0.00 | 0.00 | 0.00 | 100 | 1022.3 |
| 20260502060020 | 3 | 113 | 0.0 | 0.0 | 0.00 | 0.00 | 0.00 | 100 | 1022.3 |
| 20260502054523 | 3 | 113 | 0.0 | 0.0 | 0.00 | 0.00 | 0.00 | 100 | 1022.4 |
| 20260502053007 | 3 | 113 | 0.0 | 0.0 | 0.00 | 0.00 | 0.00 | 100 | 1022.3 |
| 20260502051503 | 3 | 113 | 0.0 | 0.0 | 0.00 | 0.00 | 0.00 | 100 | 1022.3 |
| 20260502050059 | 3 | 113 | 0.0 | 0.0 | 0.00 | 0.00 | 0.00 | 100 | 1022.4 |
| 20260502044554 | 3 | 113 | 0.0 | 0.0 | 0.00 | 0.00 | 0.00 | 100 | 1022.4 |
| 20260502043051 | 3 | 113 | 0.0 | 0.0 | 0.00 | 0.00 | 0.00 | 100 | 1022.3 |
| 20260502041546 | 4 | 113 | 0.0 | 0.0 | 0.00 | 0.00 | 0.00 | 100 | 1022.2 |
| 20260502040041 | 4 | 113 | 0.0 | 0.0 | 0.00 | 0.00 | 0.00 | 100 | 1022.2 |
| 20260502034536 | 4 | 113 | 0.0 | 0.0 | 0.00 | 0.00 | 0.00 | 100 | 1022.1 |
| 20260502033041 | 4 | 113 | 0.0 | 0.0 | 0.00 | 0.00 | 0.00 | 100 | 1022.0 |
| 20260502031527 | 4 | 112 | 0.0 | 4.8 | 0.00 | 0.00 | 0.00 | 100 | 1022.0 |
| 20260502030023 | 5 | 92 | 1.6 | 8.0 | 0.00 | 0.00 | 0.00 | 100 | 1022.0 |
| 20260502024518 | 5 | 100 | 0.0 | 11.3 | 0.00 | 0.00 | 0.00 | 100 | 1021.8 |
| 20260502023014 | 5 | 74 | 4.8 | 14.5 | 0.00 | 0.00 | 0.00 | 100 | 1021.7 |
| 20260502021514 | 5 | 82 | 1.6 | 12.9 | 0.00 | 0.00 | 0.00 | 100 | 1021.5 |
| 20260502020006 | 5 | 90 | 3.2 | 16.1 | 0.00 | 0.00 | 0.00 | 100 | 1021.3 |
| 20260502014501 | 5 | 95 | 3.2 | 14.5 | 0.00 | 0.00 | 0.00 | 100 | 1020.9 |
| 20260502013057 | 6 | 89 | 4.8 | 14.5 | 0.00 | 0.00 | 0.00 | 100 | 1020.8 |
| 20260502011556 | 6 | 90 | 6.4 | 20.9 | 0.00 | 0.00 | 0.00 | 100 | 1020.5 |
| 20260502010053 | 7 | 82 | 4.8 | 16.1 | 0.00 | 0.00 | 0.00 | 100 | 1020.3 |
| 20260502004602 | 8 | 88 | 3.2 | 12.9 | 0.00 | 0.00 | 0.00 | 100 | 1020.1 |
| 20260502003040 | 8 | 77 | 0.0 | 8.0 | 0.00 | 0.00 | 0.00 | 100 | 1019.9 |